Weather History for KINL - March, 2013

Change the Weather History Date:

Saturday, March 9, 2013

  Actual Average Record
Temperature  
Mean Temperature 30 °F 20 °F  
Max Temperature 33 °F 31 °F 51 °F (1977)
Min Temperature 26 °F 9 °F -24 °F (1948)
Degree Days  
Heating Degree Days 35 45  
Month to date heating degree days 443 421  
Since 1 July heating degree days 8000 8004  
Cooling Degree Days 0 0  
Month to date cooling degree days 0 0  
Year to date cooling degree days 0 0  
Moisture  
Dew Point 28 °F    
Average Humidity 91    
Maximum Humidity 100    
Minimum Humidity 81    
Precipitation  
Precipitation 0.43 in 0.03 in 0.43 in (2013)
Month to date precipitation 0.64 0.22  
Year to date precipitation 4.30 1.41  
Snow  
Snow 3.50 in 0.30 in 5.70 in (2009)
Month to date snowfall 6.6 2.7  
Since 1 July snowfall 76.9 59.5  
Snow Depth 23.00 in    
Sea Level Pressure  
Sea Level Pressure 29.87 in    
Wind  
Wind Speed 6 mph (NE)    
Max Wind Speed 10 mph    
Max Gust Speed 15 mph    
Visibility 2 miles    
Events Fog , Rain , Snow    
T = Trace of Precipitation, MM = Missing Value Source: NWS Daily Summary

Daily Weather History Graph

Daily Weather History Graph

Search for Another Location

Airport or City:

Trip Planner

Search our weather history database for the weather conditions in past years. The results will help you decide how hot, cold, wet, or windy it might be!

Date:

Astronomy

Mar. 09, 2013 Rise Set
Actual Time 6:38 AM CST 6:10 PM CST
Civil Twilight 6:07 AM CST 6:41 PM CST
Nautical Twilight 5:31 AM CST 7:17 PM CST
Astronomical Twilight 4:54 AM CST 7:54 PM CST
Moon 5:11 AM CST (3/9) 4:06 PM CST (3/9)
Length of Visible Light 12h 34m
Length of Day
11h 31m
Waning Crescent, 5% of the Moon is Illuminated
Mar 9
Waning Crescent
Mar 11
New
Mar 19
First Quarter
Mar 27
Full
Apr 2
Last Quarter

Hourly Weather History & Observations

Time (CST) Temp. Windchill Dew Point Humidity Pressure Visibility Wind Dir Wind Speed Gust Speed Precip Events Conditions
12:55 AM 27.0 °F 23.0 °F 21.9 °F 81% 30.14 in 7.0 mi East 3.5 mph - N/A   Overcast
1:55 AM 27.0 °F 20.5 °F 21.9 °F 81% 30.12 in 7.0 mi East 5.8 mph - N/A   Overcast
2:55 AM 27.0 °F 18.7 °F 21.9 °F 81% 30.08 in 7.0 mi ESE 8.1 mph - N/A   Overcast
3:55 AM 27.0 °F 18.0 °F 23.0 °F 85% 30.05 in 7.0 mi East 9.2 mph - N/A   Overcast
4:55 AM 27.0 °F 18.0 °F 23.0 °F 85% 30.04 in 4.0 mi ESE 9.2 mph - 0.00 in Snow Light Snow
5:03 AM 26.6 °F 17.5 °F 24.8 °F 93% 29.97 in 1.8 mi ESE 9.2 mph - 0.00 in Snow Light Snow
5:13 AM 26.6 °F 18.2 °F 24.8 °F 93% 29.97 in 1.5 mi ESE 8.1 mph - 0.00 in Snow Light Snow
5:51 AM 26.6 °F 18.2 °F 24.8 °F 93% 29.95 in 1.0 mi East 8.1 mph - 0.02 in Snow Light Snow
5:55 AM 26.6 °F 18.2 °F 24.8 °F 93% 29.95 in 0.8 mi East 8.1 mph - N/A Snow Light Snow
6:17 AM 26.6 °F 19.1 °F 24.8 °F 93% 29.95 in 1.0 mi ESE 6.9 mph - 0.02 in Snow Light Snow
6:37 AM 26.6 °F 18.2 °F 24.8 °F 93% 29.94 in 0.8 mi East 8.1 mph - 0.05 in Snow Light Snow
6:44 AM 26.6 °F 19.1 °F 24.8 °F 93% 29.94 in 0.5 mi East 6.9 mph - 0.06 in Fog , Snow Snow
6:55 AM 27.0 °F 20.5 °F 25.0 °F 92% 30.00 in 0.5 mi East 5.8 mph - 0.08 in Fog , Snow Snow
7:12 AM 26.6 °F 19.1 °F 26.6 °F 100% 29.94 in 0.2 mi ESE 6.9 mph - 0.03 in Fog , Snow Snow
7:16 AM 26.6 °F 19.1 °F 24.8 °F 93% 29.93 in 0.5 mi East 6.9 mph - 0.03 in Fog , Snow Snow
7:55 AM 27.0 °F 19.5 °F 26.1 °F 96% 29.99 in 0.5 mi East 6.9 mph - 0.07 in Fog , Snow Light Snow
8:34 AM 28.4 °F 20.4 °F 26.6 °F 93% 29.91 in 0.8 mi East 8.1 mph - 0.03 in Snow Light Snow
8:52 AM 28.4 °F 21.2 °F 26.6 °F 93% 29.90 in 0.5 mi East 6.9 mph - 0.04 in Fog , Snow Snow
8:55 AM 28.0 °F 20.0 °F 27.0 °F 96% 29.95 in 0.5 mi East 8.1 mph - 0.04 in Fog , Snow Snow
9:19 AM 28.4 °F 19.7 °F 26.6 °F 93% 29.88 in 0.5 mi East 9.2 mph - 0.02 in Fog , Snow Light Snow
9:42 AM 28.4 °F 22.2 °F 26.6 °F 93% 29.88 in 0.5 mi East 5.8 mph - 0.04 in Fog , Snow Light Snow
9:55 AM 28.9 °F 22.8 °F 27.0 °F 92% 29.93 in 0.5 mi East 5.8 mph - 0.05 in Fog , Snow Light Snow
10:11 AM 28.4 °F 21.2 °F 26.6 °F 93% 29.86 in 1.5 mi East 6.9 mph - 0.00 in Snow Light Snow
10:48 AM 30.2 °F 25.4 °F 28.4 °F 93% 29.85 in 2.0 mi East 4.6 mph - 0.01 in Snow Light Snow
10:55 AM 30.0 °F 24.1 °F 27.0 °F 88% 29.90 in 2.0 mi ENE 5.8 mph - 0.01 in   Overcast
11:09 AM 30.2 °F 23.4 °F 26.6 °F 86% 29.83 in 1.5 mi East 6.9 mph - 0.00 in Snow Light Snow
11:27 AM 30.2 °F 22.6 °F 26.6 °F 86% 29.82 in 2.5 mi East 8.1 mph - 0.00 in Snow Light Snow
11:45 AM 30.2 °F 23.4 °F 28.4 °F 93% 29.82 in 1.2 mi East 6.9 mph - 0.01 in Snow Light Snow
11:55 AM 30.0 °F 25.2 °F 28.0 °F 92% 29.88 in 1.0 mi East 4.6 mph - 0.01 in Snow Light Snow
12:55 PM 30.9 °F 27.5 °F 28.9 °F 92% 29.86 in 1.2 mi East 3.5 mph - 0.01 in Snow Light Snow
1:40 PM 32.0 °F 28.7 °F 30.2 °F 93% 29.79 in 0.8 mi East 3.5 mph - 0.01 in Snow Light Snow
1:55 PM 32.0 °F - 30.0 °F 92% 29.84 in 1.0 mi Calm Calm - 0.01 in Snow Light Snow
2:55 PM 33.1 °F 28.7 °F 30.0 °F 89% 29.82 in 1.8 mi NNE 4.6 mph - 0.01 in Snow Light Snow
3:03 PM 32.0 °F 27.5 °F 30.2 °F 93% 29.77 in 2.0 mi North 4.6 mph - 0.00 in Snow Light Snow
3:16 PM 32.0 °F 27.5 °F 28.4 °F 87% 29.76 in 3.0 mi NNE 4.6 mph - 0.00 in   Overcast
3:55 PM 32.0 °F 28.7 °F 30.0 °F 92% 29.82 in 2.5 mi NNE 3.5 mph - 0.00 in Snow Light Snow
4:04 PM 32.0 °F 26.4 °F 30.2 °F 93% 29.76 in 1.5 mi NE 5.8 mph - 0.00 in Snow Light Snow
4:32 PM 32.0 °F 28.7 °F 30.2 °F 93% 29.76 in 0.8 mi NNE 3.5 mph - 0.01 in Snow Light Snow
4:55 PM 32.0 °F 27.5 °F 30.0 °F 92% 29.81 in 0.8 mi North 4.6 mph - 0.01 in Snow Light Snow
5:11 PM 32.0 °F 28.7 °F 30.2 °F 93% 29.75 in 0.8 mi NNE 3.5 mph - 0.01 in Snow Light Snow
5:18 PM 32.0 °F 27.5 °F 30.2 °F 93% 29.75 in 1.0 mi NNE 4.6 mph - 0.01 in Snow Light Snow
5:55 PM 30.9 °F 26.2 °F 30.0 °F 96% 29.82 in 1.8 mi NNW 4.6 mph - 0.01 in Snow Light Snow
6:11 PM 30.2 °F 24.3 °F 30.2 °F 100% 29.77 in 2.0 mi NW 5.8 mph - 0.00 in Snow Light Snow
6:41 PM 30.2 °F 24.3 °F 30.2 °F 100% 29.77 in 1.5 mi NNW 5.8 mph - 0.01 in Snow Light Snow
6:51 PM 30.2 °F 24.3 °F 30.2 °F 100% 29.77 in 1.2 mi NW 5.8 mph - 0.02 in Snow Light Snow
6:55 PM 30.9 °F 24.3 °F 30.0 °F 96% 29.83 in 1.2 mi NNW 6.9 mph - 0.02 in Snow Light Snow
7:55 PM 30.9 °F 25.2 °F 30.0 °F 96% 29.84 in 1.5 mi NW 5.8 mph - 0.03 in Snow Light Snow
8:14 PM 30.2 °F 24.3 °F 28.4 °F 93% 29.79 in 1.2 mi NW 5.8 mph - 0.00 in Snow Light Snow
8:52 PM 30.2 °F 23.4 °F 28.4 °F 93% 29.80 in 1.0 mi NW 6.9 mph - 0.02 in Snow Light Snow
8:55 PM 30.0 °F 24.1 °F 28.9 °F 96% 29.86 in 1.0 mi NW 5.8 mph - 0.02 in Snow Light Snow
9:17 PM 30.2 °F 23.4 °F 28.4 °F 93% 29.80 in 1.5 mi NW 6.9 mph - 0.02 in Snow Light Snow
9:22 PM 30.2 °F 22.6 °F 28.4 °F 93% 29.80 in 2.0 mi NW 8.1 mph - N/A Snow Light Snow
9:39 PM 30.2 °F 23.4 °F 28.4 °F 93% 29.80 in 3.0 mi NW 6.9 mph - 0.02 in Snow Light Snow
9:55 PM 30.0 °F 22.4 °F 28.0 °F 92% 29.86 in 3.0 mi NW 8.1 mph - 0.02 in Snow Light Snow
10:04 PM 30.2 °F 22.6 °F 28.4 °F 93% 29.80 in 2.5 mi NW 8.1 mph - 0.00 in Snow Light Snow
10:14 PM 30.2 °F 22.6 °F 28.4 °F 93% 29.80 in 2.0 mi NW 8.1 mph - 0.00 in Snow Light Snow
10:30 PM 30.2 °F 21.9 °F 28.4 °F 93% 29.81 in 3.0 mi NW 9.2 mph - 0.00 in Snow Light Snow
10:53 PM 28.4 °F 19.7 °F 28.4 °F 100% 29.81 in 4.0 mi NW 9.2 mph - 0.00 in   Overcast
10:55 PM 28.9 °F 20.4 °F 28.0 °F 96% 29.86 in 4.0 mi NW 9.2 mph - 0.00 in   Overcast
11:11 PM 30.2 °F 21.9 °F 28.4 °F 93% 29.81 in 4.0 mi NW 9.2 mph - 0.00 in   Overcast
11:26 PM 30.2 °F 21.9 °F 28.4 °F 93% 29.81 in 2.5 mi NW 9.2 mph - 0.00 in Rain Light Freezing Rain
11:34 PM 30.2 °F 21.9 °F 28.4 °F 93% 29.81 in 2.5 mi NW 9.2 mph - 0.00 in Rain Light Freezing Rain
11:52 PM 30.2 °F 21.9 °F 30.2 °F 100% 29.82 in 3.0 mi NW 9.2 mph - 0.00 in Rain Light Freezing Rain
11:55 PM 30.9 °F 23.5 °F 30.0 °F 96% 29.87 in 3.0 mi NW 8.1 mph - 0.00 in Rain Light Freezing Rain
11:59 PM 30.2 °F 21.3 °F 30.2 °F 100% 29.82 in 2.5 mi NW 10.4 mph - N/A   Overcast